History for Miami, FL

Thursday, January 24, 2013 — View Current Conditions

Jump to Data:

Date:
Airport Code:
Recently Viewed Airport Codes: KMIA
Daily Summary
  Actual Average Record
Temperature
Mean Temperature 69°F 68°F  
Max Temperature 77°F 77°F 85°F (1898)
Min Temperature 60°F 60°F 36°F (2003)
Degree Days
Heating Degree Days 0 2  
Month to date heating degree days 4 48  
Since 1 July heating degree days 20 85  
Cooling Degree Days 4 5  
Month to date cooling degree days 215 120  
Year to date cooling degree days 215 120  
Growing Degree Days 18 (Base 50)    
Moisture
Dew Point 53°F    
Average Humidity 65    
Maximum Humidity 84    
Minimum Humidity 46    
Precipitation
Precipitation 0.00 in 0.05 in 1.01 in (1999)
Month to date precipitation 0.54 1.23  
Year to date precipitation 0.54 1.23  
Snow
Snow 0.00 in in in ()
Month to date snowfall 0.0  
Since 1 July snowfall 0.0  
Snow Depth 0.00 in    
Sea Level Pressure
Sea Level Pressure 30.26 in    
Wind
Wind Speed 5 mph (North)    
Max Wind Speed 13 mph    
Max Gust Speed 20 mph    
Visibility 10 miles    
Events      
T = Trace of Precipitation, MM = Missing Value Source: NWS Daily Summary

Show full METARS

(help) - Comma Delimited File

Hourly Observations

Time(EST) Temperature Dew Point Humidity Sea Level Pressure Visibility Wind Direction Wind Speed Gust Speed Precipitation Events Conditions
12:53 AM 62.1°F 55.0°F 78% 30.26 in 10.0 miles North 4.6 mph - N/A   Scattered Clouds
1:53 AM 61.0°F 55.0°F 81% 30.25 in 10.0 miles Calm Calm - N/A   Scattered Clouds
2:53 AM 61.0°F 54.0°F 78% 30.24 in 10.0 miles North 3.5 mph - N/A   Scattered Clouds
3:53 AM 61.0°F 55.0°F 81% 30.24 in 10.0 miles North 3.5 mph - N/A   Scattered Clouds
4:53 AM 60.1°F 54.0°F 80% 30.24 in 10.0 miles NNW 3.5 mph - N/A   Scattered Clouds
5:53 AM 60.1°F 54.0°F 80% 30.23 in 10.0 miles North 3.5 mph - N/A   Scattered Clouds
6:53 AM 60.1°F 54.0°F 80% 30.25 in 10.0 miles North 5.8 mph - N/A   Partly Cloudy
7:53 AM 62.1°F 54.0°F 75% 30.28 in 10.0 miles North 4.6 mph - N/A   Scattered Clouds
8:53 AM 64.9°F 52.0°F 63% 30.30 in 10.0 miles NNW 6.9 mph - N/A   Scattered Clouds
9:53 AM 69.1°F 52.0°F 54% 30.31 in 10.0 miles NNW 4.6 mph - N/A   Mostly Cloudy
10:53 AM 72.0°F 52.0°F 49% 30.30 in 10.0 miles North 6.9 mph - N/A   Scattered Clouds
11:53 AM 73.9°F 54.0°F 50% 30.28 in 10.0 miles Variable 4.6 mph - N/A   Scattered Clouds
12:53 PM 75.0°F 54.0°F 48% 30.25 in 10.0 miles Variable 5.8 mph - N/A   Mostly Cloudy
1:53 PM 73.9°F 52.0°F 46% 30.23 in 10.0 miles NE 8.1 mph - N/A   Mostly Cloudy
2:53 PM 75.9°F 55.0°F 48% 30.21 in 10.0 miles Variable 3.5 mph - N/A   Mostly Cloudy
3:53 PM 73.9°F 54.0°F 50% 30.21 in 10.0 miles ENE 9.2 mph - N/A   Scattered Clouds
4:53 PM 72.0°F 55.0°F 55% 30.22 in 10.0 miles ENE 10.4 mph - N/A   Partly Cloudy
5:53 PM 71.1°F 54.0°F 55% 30.24 in 10.0 miles ENE 5.8 mph - N/A   Partly Cloudy
6:53 PM 70.0°F 54.0°F 57% 30.25 in 10.0 miles NE 6.9 mph - N/A   Partly Cloudy
7:53 PM 69.1°F 54.0°F 58% 30.25 in 10.0 miles NE 5.8 mph - N/A   Partly Cloudy
8:53 PM 66.9°F 51.1°F 57% 30.27 in 10.0 miles North 4.6 mph - N/A   Partly Cloudy
9:53 PM 66.0°F 50.0°F 56% 30.27 in 10.0 miles Variable 4.6 mph - N/A   Partly Cloudy
10:53 PM 64.9°F 51.1°F 61% 30.27 in 10.0 miles NNE 3.5 mph - N/A   Partly Cloudy
11:53 PM 64.0°F 51.1°F 63% 30.27 in 10.0 miles North 4.6 mph - N/A   Clear